Weather History for KRMY - November, 2012

Change the Weather History Date:

Sunday, November 25, 2012

  Actual Average (KBTL) Record (KBTL)
Temperature  
Mean Temperature 31 °F 35 °F  
Max Temperature 36 °F 43 °F 57 °F (2006)
Min Temperature 26 °F 27 °F 12 °F (2005)
Degree Days  
Heating Degree Days 34 30  
Month to date heating degree days 619  
Since 1 July heating degree days 1281  
Cooling Degree Days 0 0  
Month to date cooling degree days 0  
Year to date cooling degree days 578  
Moisture  
Dew Point 24 °F    
Average Humidity 75    
Maximum Humidity 87    
Minimum Humidity 67    
Precipitation  
Precipitation 0.00 in 0.08 in 0.36 in (2010)
Month to date precipitation 2.41  
Year to date precipitation 30.74  
Sea Level Pressure  
Sea Level Pressure 29.90 in    
Wind  
Wind Speed 7 mph (SW)    
Max Wind Speed 12 mph    
Max Gust Speed 16 mph    
Visibility 10 miles    
Events Snow    
T = Trace of Precipitation, MM = Missing Value Source: NWS Daily Summary

Daily Weather History Graph

Daily Weather History Graph

Search for Another Location

Airport or City:

Trip Planner

Search our weather history database for the weather conditions in past years. The results will help you decide how hot, cold, wet, or windy it might be!

Date:

Astronomy

Nov. 25, 2012 Rise Set
Actual Time 7:42 AM EST 5:10 PM EST
Civil Twilight 7:11 AM EST 5:41 PM EST
Nautical Twilight 6:37 AM EST 6:16 PM EST
Astronomical Twilight 6:03 AM EST 6:49 PM EST
Moon 3:29 PM EST (11/25) 4:54 AM EST (11/25)
Length of Visible Light 10h 29m
Length of Day
9h 27m
Waxing Gibbous, 93% of the Moon is Illuminated
Nov 25
Waxing Gibbous
Nov 28
Full
Dec 6
Last Quarter
Dec 13
New
Dec 20
First Quarter

Hourly Weather History & Observations

Time (EST) Temp. Windchill Dew Point Humidity Pressure Visibility Wind Dir Wind Speed Gust Speed Precip Events Conditions
12:13 AM 27.3 °F 19.9 °F 19.6 °F 73% 30.02 in 10.0 mi SW 6.9 mph - N/A   Overcast
12:33 AM 27.3 °F 19.9 °F 19.8 °F 73% 30.00 in 10.0 mi SSW 6.9 mph - N/A   Overcast
12:54 AM 27.1 °F 20.7 °F 19.8 °F 74% 29.99 in 10.0 mi South 5.8 mph - N/A   Overcast
1:13 AM 27.3 °F 19.9 °F 19.4 °F 72% 30.00 in 10.0 mi SW 6.9 mph - N/A   Overcast
1:33 AM 27.1 °F 18.9 °F 19.4 °F 73% 29.99 in 10.0 mi SSW 8.1 mph - N/A   Overcast
1:54 AM 27.1 °F 18.9 °F 19.0 °F 72% 29.98 in 10.0 mi SSW 8.1 mph - N/A   Overcast
2:13 AM 27.1 °F 18.9 °F 19.0 °F 72% 29.98 in 10.0 mi SSW 8.1 mph - N/A   Mostly Cloudy
2:33 AM 27.1 °F 18.2 °F 19.2 °F 72% 29.97 in 10.0 mi SSW 9.2 mph - N/A   Mostly Cloudy
2:54 AM 27.1 °F 19.7 °F 19.2 °F 72% 29.96 in 10.0 mi SSW 6.9 mph - N/A   Overcast
3:13 AM 26.8 °F 19.3 °F 19.4 °F 74% 29.95 in 10.0 mi South 6.9 mph - N/A   Overcast
3:33 AM 27.1 °F 18.9 °F 19.8 °F 74% 29.95 in 10.0 mi SSW 8.1 mph - N/A   Overcast
3:54 AM 27.1 °F 19.7 °F 19.8 °F 74% 29.94 in 10.0 mi SSW 6.9 mph - N/A   Overcast
4:13 AM 27.1 °F 19.7 °F 19.8 °F 74% 29.93 in 10.0 mi SSW 6.9 mph - N/A   Overcast
4:34 AM 27.1 °F 18.2 °F 20.1 °F 75% 29.91 in 10.0 mi South 9.2 mph - N/A   Overcast
4:54 AM 27.1 °F 18.2 °F 20.1 °F 75% 29.89 in 10.0 mi South 9.2 mph - N/A   Overcast
5:13 AM 27.1 °F 19.7 °F 20.1 °F 75% 29.88 in 10.0 mi South 6.9 mph - N/A   Overcast
5:34 AM 27.1 °F 20.7 °F 20.3 °F 75% 29.88 in 10.0 mi South 5.8 mph - N/A   Overcast
5:53 AM 27.3 °F 19.9 °F 20.3 °F 75% 29.87 in 10.0 mi South 6.9 mph - N/A   Overcast
6:13 AM 27.3 °F 18.4 °F 20.5 °F 75% 29.87 in 10.0 mi South 9.2 mph - N/A   Overcast
6:34 AM 27.3 °F 19.9 °F 21.0 °F 77% 29.86 in 7.0 mi South 6.9 mph - N/A Snow Light Snow
6:53 AM 27.1 °F 19.7 °F 22.3 °F 82% 29.86 in 7.0 mi South 6.9 mph - N/A Snow Light Snow
7:13 AM 27.3 °F 20.9 °F 21.9 °F 80% 29.86 in 10.0 mi SSW 5.8 mph - N/A   Overcast
7:34 AM 27.0 °F 21.6 °F 21.4 °F 79% 29.85 in 10.0 mi SSW 4.6 mph - N/A   Mostly Cloudy
7:53 AM 26.6 °F 20.0 °F 21.0 °F 79% 29.86 in 10.0 mi SSW 5.8 mph - N/A   Clear
8:13 AM 27.1 °F 21.8 °F 21.4 °F 79% 29.86 in 10.0 mi SW 4.6 mph - N/A   Scattered Clouds
8:34 AM 27.9 °F 22.6 °F 21.7 °F 78% 29.86 in 10.0 mi SSW 4.6 mph - N/A   Overcast
8:53 AM 28.2 °F 20.2 °F 21.9 °F 77% 29.86 in 10.0 mi SSW 8.1 mph - N/A   Overcast
9:13 AM 28.4 °F 20.4 °F 21.9 °F 77% 29.85 in 10.0 mi South 8.1 mph - N/A   Overcast
9:34 AM 28.8 °F 19.5 °F 22.1 °F 76% 29.85 in 10.0 mi SSW 10.4 mph - N/A   Overcast
9:53 AM 29.3 °F 20.8 °F 22.3 °F 75% 29.85 in 10.0 mi SSW 9.2 mph 16.1 mph N/A   Overcast
10:13 AM 29.8 °F 22.2 °F 22.6 °F 75% 29.85 in 10.0 mi SSW 8.1 mph - N/A   Overcast
10:34 AM 30.2 °F 21.3 °F 22.6 °F 73% 29.85 in 10.0 mi SSW 10.4 mph - N/A   Overcast
10:53 AM 30.9 °F 22.8 °F 23.2 °F 73% 29.85 in 10.0 mi SSW 9.2 mph - N/A   Overcast
11:14 AM 31.5 °F 24.9 °F 23.7 °F 73% 29.85 in 10.0 mi SW 6.9 mph - N/A   Overcast
11:34 AM 31.8 °F 26.2 °F 24.1 °F 73% 29.85 in 10.0 mi SW 5.8 mph - N/A   Overcast
11:52 AM 32.4 °F 24.6 °F 24.3 °F 72% 29.84 in 10.0 mi SW 9.2 mph - N/A   Overcast
12:14 PM 33.1 °F 26.1 °F 25.0 °F 72% 29.84 in 10.0 mi SW 8.1 mph - N/A   Overcast
12:33 PM 33.6 °F 27.5 °F 25.2 °F 71% 29.83 in 10.0 mi SW 6.9 mph - N/A   Overcast
12:53 PM 33.8 °F 27.7 °F 25.3 °F 71% 29.82 in 10.0 mi SW 6.9 mph - N/A   Overcast
1:14 PM 34.5 °F 27.9 °F 26.1 °F 71% 29.83 in 10.0 mi WSW 8.1 mph - N/A   Overcast
1:33 PM 34.7 °F 28.1 °F 26.2 °F 71% 29.83 in 10.0 mi WSW 8.1 mph - N/A   Overcast
1:53 PM 35.1 °F 27.9 °F 26.2 °F 70% 29.83 in 10.0 mi SW 9.2 mph - N/A   Overcast
2:14 PM 35.4 °F 27.3 °F 26.4 °F 70% 29.83 in 10.0 mi WSW 11.5 mph - N/A   Overcast
2:33 PM 35.8 °F 29.4 °F 26.8 °F 70% 29.84 in 10.0 mi WSW 8.1 mph - N/A   Overcast
2:53 PM 36.0 °F 29.0 °F 27.0 °F 70% 29.83 in 10.0 mi WSW 9.2 mph - N/A   Overcast
3:13 PM 36.0 °F 28.0 °F 27.0 °F 70% 29.84 in 10.0 mi West 11.5 mph 16.1 mph N/A   Overcast
3:34 PM 36.1 °F 29.9 °F 27.0 °F 69% 29.85 in 10.0 mi West 8.1 mph - N/A   Overcast
3:53 PM 36.1 °F 28.7 °F 27.0 °F 69% 29.85 in 10.0 mi West 10.4 mph - N/A   Overcast
4:13 PM 36.1 °F 30.6 °F 26.8 °F 69% 29.85 in 10.0 mi West 6.9 mph - N/A   Overcast
4:33 PM 36.0 °F 32.1 °F 27.0 °F 70% 29.86 in 10.0 mi WSW 4.6 mph - N/A   Overcast
4:54 PM 36.0 °F 32.1 °F 27.1 °F 70% 29.86 in 10.0 mi WSW 4.6 mph - N/A   Overcast
5:13 PM 36.0 °F 32.1 °F 27.5 °F 71% 29.87 in 10.0 mi WSW 4.6 mph - N/A   Overcast
5:34 PM 35.6 °F 31.7 °F 27.7 °F 73% 29.87 in 10.0 mi West 4.6 mph - N/A   Overcast
5:53 PM 35.4 °F 30.5 °F 27.7 °F 73% 29.88 in 10.0 mi West 5.8 mph - N/A   Overcast
6:13 PM 36.0 °F 29.0 °F 27.1 °F 70% 29.89 in 10.0 mi West 9.2 mph - N/A   Overcast
6:34 PM 36.0 °F 29.0 °F 26.8 °F 69% 29.90 in 10.0 mi West 9.2 mph - N/A   Overcast
6:53 PM 35.8 °F 28.3 °F 27.1 °F 71% 29.91 in 10.0 mi West 10.4 mph - N/A   Overcast
7:13 PM 35.8 °F 27.8 °F 25.9 °F 67% 29.92 in 10.0 mi WNW 11.5 mph 16.1 mph N/A   Overcast
7:34 PM 35.4 °F 29.7 °F 26.1 °F 69% 29.92 in 10.0 mi WNW 6.9 mph - N/A   Overcast
7:53 PM 33.3 °F 30.2 °F 25.9 °F 74% 29.93 in 10.0 mi West 3.5 mph - N/A   Mostly Cloudy
8:13 PM 32.0 °F - 25.3 °F 76% 29.93 in 10.0 mi Calm Calm - N/A   Clear
8:34 PM 31.6 °F - 25.3 °F 78% 29.94 in 10.0 mi Calm Calm - N/A   Clear
8:53 PM 27.7 °F - 23.4 °F 84% 29.94 in 10.0 mi Calm Calm - N/A   Clear
9:13 PM 30.6 °F - 25.7 °F 82% 29.94 in 10.0 mi Calm Calm - N/A   Scattered Clouds
9:33 PM 27.7 °F 23.8 °F 24.3 °F 87% 29.95 in 10.0 mi WSW 3.5 mph - N/A   Scattered Clouds
9:53 PM 28.6 °F 22.4 °F 25.2 °F 87% 29.96 in 10.0 mi SW 5.8 mph - N/A   Scattered Clouds
10:14 PM 29.7 °F - 25.9 °F 86% 29.96 in 10.0 mi Calm Calm - N/A   Overcast
10:33 PM 30.9 °F - 27.1 °F 86% 29.97 in 7.0 mi Calm Calm - N/A   Overcast
10:53 PM 31.6 °F - 27.7 °F 85% 29.96 in 7.0 mi Calm Calm - N/A   Overcast
11:13 PM 31.1 °F - 27.3 °F 86% 29.99 in 10.0 mi Calm Calm - N/A   Overcast
11:34 PM 31.5 °F - 27.7 °F 86% 29.99 in 10.0 mi Calm Calm - N/A   Overcast
11:53 PM 31.5 °F - 27.7 °F 86% 29.99 in 10.0 mi Calm Calm - N/A   Mostly Cloudy